Le nostre stazioni meteo in Italia

Pubblicità
Il mio iltempo24.it
Luqa, Malta (16597): Temperatura & dewpoint: 24.03.2020 13:00:00 - 30.03.2020 13:00:00 (CEST)Luqa, Malta (16597): velocità del vento: 24.03.2020 13:00:00 - 30.03.2020 13:00:00 (CEST)Luqa, Malta (16597): direzione del vento: 24.03.2020 13:00:00 - 30.03.2020 13:00:00 (CEST)Luqa, Malta (16597): reduced air pressure: 24.03.2020 13:00:00 - 30.03.2020 13:00:00 (CEST)Luqa, Malta (16597): visibility: 24.03.2020 13:00:00 - 30.03.2020 13:00:00 (CEST)
Data & Tempo tt [°C] td [°C] ff [km/h] ff [kn] dd ppp [hPa] vv [km]
30.03.2020 13:00:00 - - - - - - -
30.03.2020 12:00:00 12,0 10,0 15 8 NNE - 10
30.03.2020 11:00:00 11,5 10,3 11 6 NE 1012,2 10
30.03.2020 10:00:00 11,0 10,0 11 6 NE - 10
30.03.2020 09:00:00 11,0 10,0 8 4 ENE - 10
30.03.2020 08:00:00 13,8 10,2 13 7 E 1010,7 9
30.03.2020 07:00:00 10,0 10,0 15 8 E - 8
30.03.2020 06:00:00 11,0 9,0 11 6 NNE - 9
30.03.2020 05:00:00 11,3 9,3 9 5 NNE 1010,5 9
30.03.2020 04:00:00 12,0 9,0 16 9 ENE - 9
30.03.2020 03:00:00 13,0 11,0 11 6 NE - 10
30.03.2020 02:00:00 13,6 10,5 9 5 ENE 1010,9 10
30.03.2020 01:00:00 13,0 11,0 9 5 ENE - 10
30.03.2020 00:00:00 14,0 11,0 11 6 E - 10
29.03.2020 23:00:00 13,5 10,6 13 7 E 1012,1 10
29.03.2020 22:00:00 13,0 11,0 15 8 E - 10
29.03.2020 21:00:00 13,0 10,0 13 7 E - 10
29.03.2020 20:00:00 13,8 10,3 13 7 ENE 1011,6 10
29.03.2020 19:00:00 14,0 11,0 16 9 E - 10
29.03.2020 18:00:00 15,0 11,0 21 11 E - 10
29.03.2020 17:00:00 15,6 10,6 21 11 E 1011,6 10
29.03.2020 16:00:00 15,0 11,0 22 12 E - 10
29.03.2020 15:00:00 16,0 10,0 21 11 E - 10
29.03.2020 14:00:00 16,3 10,5 21 11 ENE 1012,2 10
29.03.2020 13:00:00 16,0 11,0 24 13 NE - 10
29.03.2020 12:00:00 16,0 10,0 18 10 NE - 10
29.03.2020 11:00:00 15,4 10,1 21 11 N 1012,7 10
29.03.2020 10:00:00 15,0 10,0 18 10 NNE - 10
29.03.2020 09:00:00 13,0 10,0 8 4 N - 10
29.03.2020 08:00:00 11,2 9,6 9 5 NO 1013,6 10
29.03.2020 07:00:00 9,0 8,0 11 6 NO - 10
29.03.2020 06:00:00 10,0 8,0 9 5 NO - 10
29.03.2020 05:00:00 9,8 8,8 9 5 ONO 1014,3 10
29.03.2020 04:00:00 10,0 9,0 4 2 NO - 10
29.03.2020 03:00:00 11,0 9,0 4 2 - - 10
29.03.2020 02:00:00 11,5 9,2 5 3 ONO 1015,3 10
29.03.2020 01:00:00 12,0 9,0 9 5 NO - 10
29.03.2020 00:00:00 13,0 9,0 11 6 N - 10
28.03.2020 23:00:00 12,8 8,6 13 7 NNO 1015,3 10
28.03.2020 22:00:00 13,0 8,0 9 5 NNO - 10
28.03.2020 21:00:00 13,0 8,0 8 4 NO - 10
28.03.2020 20:00:00 12,4 7,5 8 4 ONO 1014,7 10
28.03.2020 19:00:00 14,0 8,0 11 6 ONO - 10
28.03.2020 18:00:00 16,0 8,0 16 9 ONO - 10
28.03.2020 17:00:00 16,5 8,0 15 8 O 1014,0 10
28.03.2020 16:00:00 17,0 8,0 21 11 O - 10
28.03.2020 15:00:00 16,0 8,0 22 12 O - 10
28.03.2020 14:00:00 16,6 9,4 22 12 O 1015,1 10
28.03.2020 13:00:00 16,0 10,0 21 11 O - 10
28.03.2020 12:00:00 16,0 10,0 18 10 O - 10
28.03.2020 11:00:00 16,2 8,5 18 10 O 1015,7 10
28.03.2020 10:00:00 16,0 9,0 21 11 O - 10
28.03.2020 09:00:00 14,0 9,0 16 9 O - 10
28.03.2020 08:00:00 12,2 8,6 8 4 O 1014,3 10
28.03.2020 07:00:00 10,0 8,0 9 5 O - 10
28.03.2020 06:00:00 10,0 7,0 11 6 O - 10
28.03.2020 05:00:00 9,0 7,2 11 6 O 1014,1 10
28.03.2020 04:00:00 9,0 7,0 9 5 O - 10
28.03.2020 03:00:00 10,0 7,0 8 4 O - 10
28.03.2020 02:00:00 9,8 7,4 9 5 ONO 1014,2 10
28.03.2020 01:00:00 9,0 7,0 9 5 O - 10
28.03.2020 00:00:00 10,0 7,0 11 6 O - 10
27.03.2020 23:00:00 10,2 7,2 13 7 NO 1013,7 10
27.03.2020 22:00:00 11,0 8,0 11 6 ONO - 10
27.03.2020 21:00:00 11,0 8,0 11 6 ONO - 10
27.03.2020 20:00:00 12,4 7,0 11 6 ONO 1011,9 10
27.03.2020 19:00:00 13,0 8,0 18 10 ONO - 10
27.03.2020 18:00:00 14,0 8,0 24 13 NO - 10
27.03.2020 17:00:00 15,8 7,6 28 15 ONO 1009,3 10
27.03.2020 16:00:00 16,0 9,0 24 13 OSO - 10
27.03.2020 15:00:00 17,0 9,0 35 19 SO - 10
27.03.2020 14:00:00 15,9 8,9 26 14 SSO 1009,8 10
27.03.2020 13:00:00 15,0 9,0 22 12 SSO - 10
27.03.2020 12:00:00 15,0 8,0 22 12 SSO - 10
27.03.2020 11:00:00 13,8 8,1 21 11 SSO 1010,8 10
27.03.2020 10:00:00 12,0 10,0 11 6 SO - 10
27.03.2020 09:00:00 11,0 9,0 18 10 OSO - 9
27.03.2020 08:00:00 13,4 7,4 13 7 SSO 1010,5 8
27.03.2020 07:00:00 13,0 7,0 22 12 SO - 10
27.03.2020 06:00:00 13,0 6,0 22 12 OSO - 10
27.03.2020 05:00:00 12,3 6,1 21 11 SO 1009,9 10
27.03.2020 04:00:00 11,0 7,0 15 8 SO - 10
27.03.2020 03:00:00 10,0 7,0 11 6 OSO - 10
27.03.2020 02:00:00 11,4 6,4 13 7 OSO 1011,3 10
27.03.2020 01:00:00 11,0 6,0 15 8 OSO - 10
27.03.2020 00:00:00 11,0 6,0 16 9 O - 10
26.03.2020 23:00:00 10,1 5,3 18 10 O 1011,6 10
26.03.2020 22:00:00 10,0 5,0 24 13 O - 10
26.03.2020 21:00:00 8,0 5,0 22 12 ONO - 10
26.03.2020 20:00:00 14,6 9,7 46 25 NO 1009,4 5
26.03.2020 19:00:00 11,0 3,0 31 17 O - 10
26.03.2020 18:00:00 12,0 3,0 35 19 O - 10
26.03.2020 17:00:00 12,5 4,1 39 21 ONO 1007,9 10
26.03.2020 16:00:00 12,0 5,0 35 19 O - 10
26.03.2020 15:00:00 12,0 5,0 37 20 O - 10
26.03.2020 14:00:00 13,4 5,1 34 18 ONO 1007,2 10
26.03.2020 13:00:00 14,0 5,0 35 19 ONO - 10
26.03.2020 12:00:00 13,0 5,0 39 21 ONO - 10
26.03.2020 11:00:00 13,3 4,0 44 24 ONO 1005,2 10
26.03.2020 10:00:00 12,0 6,0 42 23 NO - 10
26.03.2020 09:00:00 11,0 7,0 42 23 ONO - 10
26.03.2020 08:00:00 10,0 8,2 41 22 ONO 1002,8 9
26.03.2020 07:00:00 11,0 8,0 41 22 ONO - 9
26.03.2020 06:00:00 11,0 8,0 35 19 ONO - 10
26.03.2020 05:00:00 11,5 9,1 41 22 ONO 1000,0 9
26.03.2020 04:00:00 12,0 9,0 41 22 ONO - 10
26.03.2020 03:00:00 12,0 10,0 39 21 ONO - 10
26.03.2020 02:00:00 12,5 10,2 29 16 O 998,8 10
26.03.2020 01:00:00 12,0 11,0 34 18 ONO - 10
26.03.2020 00:00:00 13,0 11,0 29 16 ONO - 10
25.03.2020 23:00:00 13,3 11,9 22 12 O 996,8 10
25.03.2020 22:00:00 13,0 12,0 15 8 SSO - 10
25.03.2020 21:00:00 13,0 12,0 24 13 SSO - 9
25.03.2020 20:00:00 14,0 13,4 9 5 SSO 996,2 9
25.03.2020 19:00:00 15,0 15,0 22 12 SE - 5
25.03.2020 18:00:00 15,0 15,0 21 11 ESE - 2,0
25.03.2020 17:00:00 15,1 14,3 24 13 SE 996,5 4,0
25.03.2020 16:00:00 15,0 14,0 34 18 ESE - 8
25.03.2020 15:00:00 15,0 14,0 44 24 ESE - 8
25.03.2020 14:00:00 14,4 13,8 42 23 ESE 998,0 5
25.03.2020 13:00:00 14,0 13,0 37 20 ESE - 5
25.03.2020 12:00:00 14,0 12,0 44 24 ESE - 8
25.03.2020 11:00:00 13,5 11,8 44 24 ESE 1001,0 10
25.03.2020 10:00:00 14,0 12,0 52 28 ESE - 10
25.03.2020 09:00:00 13,0 11,0 55 30 ESE - 10
25.03.2020 08:00:00 13,4 11,3 52 28 ESE 1002,3 7
25.03.2020 07:00:00 14,0 11,0 55 30 ESE - 10
25.03.2020 06:00:00 14,0 11,0 46 25 ESE - 10
25.03.2020 05:00:00 13,4 10,9 39 21 ESE 1005,6 10
25.03.2020 04:00:00 13,0 11,0 37 20 ESE - 10
25.03.2020 03:00:00 14,0 12,0 41 22 ESE - 10
25.03.2020 02:00:00 13,1 12,4 34 18 ESE 1009,8 9
25.03.2020 01:00:00 13,0 12,0 31 17 ESE - 10
25.03.2020 00:00:00 13,0 12,0 31 17 ESE - 10
24.03.2020 23:00:00 13,1 11,6 29 16 ESE 1012,0 10
24.03.2020 22:00:00 13,0 12,0 31 17 ESE - 10
24.03.2020 21:00:00 14,0 12,0 26 14 ESE - 10
24.03.2020 20:00:00 13,6 11,3 26 14 ESE 1013,0 10
24.03.2020 19:00:00 14,0 11,0 26 14 E - 10
24.03.2020 18:00:00 14,0 12,0 26 14 ESE - 10
24.03.2020 17:00:00 14,4 11,3 26 14 ESE 1014,3 10
24.03.2020 16:00:00 16,0 11,0 26 14 ESE - 10
24.03.2020 15:00:00 16,0 11,0 26 14 SE - 10
24.03.2020 14:00:00 15,8 11,2 26 14 SE 1015,7 10
24.03.2020 13:00:00 - - - - - - -

tt = Temperatura
td = dewpoint
ff = velocità del vento
dd = direzione del vento
ppp = reduced air pressure
vv = visibility

Stazioni seguenti

WeatherPro
AMSI
MeteoEarth